Regional Weather Roundup
Issued by NWS

Home | Current Version | Previous Version | Text Only | Print | Product List | Glossary On
Versions: 1 2 3 4 5 6 7 8 9 10 11 12 13 14 15 16 17 18 19 20 21 22 23 24 25 26 27 28 29 30 31 32 33 34 35 36 37 38 39 40 41 42 43 44 45 46 47 48 49 50
000
ASUS43 KDTX 240701
RWRMI
MICHIGAN HOURLY REGIONAL WEATHER ROUNDUP
NATIONAL WEATHER SERVICE DETROIT/PONTIAC MI
300 AM EDT FRI MAR 24 2017

NOTE: "FAIR" INDICATES FEW OR NO CLOUDS BELOW 12,000 FEET WITH NO
SIGNIFICANT WEATHER AND/OR OBSTRUCTION TO VISIBILITY.

MIZ047>049-052>055-059>063-066>070-074>076-081>083-240800-
SOUTHEAST LOWER MICHIGAN

CITY           SKY/WX    TMP DP  RH WIND       PRES   REMARKS
ADRIAN         CLOUDY    38  36  92 SE5       30.10F WCI  34
ALMA           CLOUDY    37  36  94 S8        29.99F WCI  31
ANN ARBOR      LGT RAIN  39  37  92 S14G24    30.07F FOG     WCI  31
BAD AXE        CLOUDY    36  25  64 S14       30.05F WCI  27
CARO           CLOUDY    38  30  71 SE9       30.02F WCI  32
DETROIT CITY   LGT RAIN  38  35  89 S12       30.09F WCI  30
DETROIT        RAIN      40  36  86 S13       30.10F FOG     WCI  32
FLINT          CLOUDY    41  35  79 S10       30.05R
GROSSE ILE     LGT SNOW  37  34  90 S10       30.08F WCI  29
HILLSDALE      CLOUDY    37  34  87 SE8       30.06F WCI  31
HOWELL         CLOUDY    39  36  87 S10       30.03S WCI  32

CITY           SKY/WX    TMP DP  RH WIND       PRES   REMARKS
JACKSON        CLOUDY    40  36  86 S14       30.05R WCI  32
LAMBERTVILLE   LGT RAIN  42  38  87 SE5       30.10F
LANSING        CLOUDY    42  36  79 S9        30.02S
LAPEER         CLOUDY    38  32  78 S9        30.07S WCI  32
MASON          CLOUDY    42  39  91 S7        30.03S
MONROE         RAIN      39  38  95 S12G18    30.10F WCI  32
MT. CLEMENS    LGT RAIN  36  36  99 S20       30.02F WCI  25
PONTIAC        CLOUDY    37  33  85 MISG      30.05F
PORT HOPE        N/A     36  24  62 S10       30.04F WCI  28
PORT HURON     DRIZZLE   37  28  70 S7        30.09F WCI  32
TRI CITIES     LGT RAIN  38  33  82 S7        30.00F WCI  33
MIDLAND        MOCLDY    39  31  71 S5        30.00F
TROY           CLOUDY    38  34  84 S10G20    30.07F WCI  31
SAGINAW HB     CLOUDY    37  32  81 SE12      29.99F WCI  30
$$
MIZ043>046-050>051-056>058-064>065-071>073-077>080-240800-
SOUTHWEST LOWER MICHIGAN

CITY           SKY/WX    TMP DP  RH WIND       PRES   REMARKS
BATTLE CREEK   CLOUDY    42  37  82 S14       30.01F
BENTON HARBOR  CLOUDY    44  35  70 S9        29.99F
BIG RAPIDS     CLOUDY    37  33  87 SE3       29.96F
COLDWATER      CLOUDY    43  36  75 S7        30.04F
FREMONT        MOCLDY    41  36  81 S5        29.96F
HOLLAND        PTCLDY    43  35  73 S10       29.98F
GRAND RAPIDS   PTCLDY    44  35  70 S16       29.98F
IONIA          MOCLDY    38  36  94 S6        29.99F WCI  33
KALAMAZOO      MOCLDY    43  35  73 S13       30.02F
LUDINGTON      CLOUDY    39  37  90 SE5       29.96F
MARSHALL       MOCLDY    41  37  84 SE8       30.02F
MOUNT PLEASANT CLOUDY    37  32  82 CALM      29.99S
MUSKEGON       CLOUDY    48  35  60 S21G32    29.93F
SOUTH HAVEN    PTCLDY    43  37  78 S8        29.98F
$$
MIZ016>042-240800-
NORTHERN LOWER MICHIGAN

CITY           SKY/WX    TMP DP  RH WIND       PRES   REMARKS
ALPENA         LGT RAIN  32  31  96 NE6       30.07S WCI  26
BEAVER ISLAND  CLOUDY    32  31  97 E6        29.99F WCI  26
BELLAIRE       CLOUDY    34  32  93 CALM      30.00F
CADILLAC       CLOUDY    38  31  76 S9        29.96R WCI  31
CHARLEVOIX     CLOUDY    33  31  92 E5        30.02F WCI  29
FRANKFORT      CLOUDY    42  32  67 SW3       29.97R
GAYLORD        FRZ RAIN  34  27  75 CALM      29.99S
GRAYLING       LGT RAIN  34  30  86 CALM      30.00R
HARBOR SPRINGS CLOUDY    32  31  96 E3        30.01S
HOUGHTON LAKE  CLOUDY    36  27  69 S9        29.97F WCI  29
MANISTEE       CLOUDY    41  33  73 VRB5      29.97S
OSCODA         MIX PCPN  35  27  73 S6        30.02F WCI  30
PELLSTON       CLOUDY    32  29  88 SE3       30.01F
ROGERS CITY    LGT SNOW  32  29  88 E5        30.06S WCI  28
TRAVERSE CITY  CLOUDY    37  34  89 NE3       29.97F
$$
MIZ007>008-015-240800-
EASTERN UPPER MICHIGAN

CITY           SKY/WX    TMP DP  RH WIND       PRES   REMARKS
KINROSS        FLURRIES  31  29  92 SE12      30.00F WCI  22
MACKINAC ISLAN LGT SNOW  31  29  90 S10       30.00F WCI  23
NEWBERRY       LGT SNOW  31  31  97 S8        29.97S WCI  24
S. S. MARIE    CLOUDY    33  29  85 E7        29.99F WCI  27
MUNISING         N/A     34  33  96 S7        29.94S WCI  28
$$
MIZ004>006-011>014-085-240800-
CENTRAL UPPER MICHIGAN

CITY           SKY/WX    TMP DP  RH WIND       PRES   REMARKS
MANISTIQUE     MIX PCPN  32  32 100 S8        29.95F WCI  25
ESCANABA       LGT RAIN  33  32  96 SE5       29.96F WCI  29
MENOMINEE        N/A    N/A N/A N/A MISG        N/A
SAWYER-GWINN   MIX PCPN  32  31  96 CALM      29.92R
$$
MIZ001>003-009>011-084-240800-
WESTERN UPPER MICHIGAN

CITY           SKY/WX    TMP DP  RH WIND       PRES   REMARKS
IRON MOUNTAIN  CLOUDY    31  28  89 SE7       29.90F WCI  24
HOUGHTON       FRZ RAIN  32  30  92 CALM      29.91S FOG
COPPER HARBOR    N/A     33  31  92 SW6       29.92S WCI  28
IRONWOOD       CLOUDY    33  32  96 CALM      29.91R FOG
$$

ABBREVIATIONS USED IN REMARKS
   TC - TEMPERATURE IN CELSIUS
  WCI - WIND CHILL INDEX
   HX - HEAT INDEX
  VSB - VISIBILITY





USA.gov is the U.S. government's official web portal to all federal, state and local government web resources and services.